Location: Unspecified
(0.0000°N, 0.0000°E)
Time: 06:26:43
(UTC+02:00)

Orbus 21S - Visible Passes

Search period start: 25 August 2016 00:00
Search period end: 04 September 2016 00:00
Orbit: 327 x 33089 km, 24.1° (Epoch: 23 August)

Date Brightness Start Highest point End Pass type
(mag) Time Alt. Az. Time Alt. Az. Time Alt. Az.
26 Aug 7.1 13:31:32 10° SW 16:49:29 78° SSW 22:30:37 14° NE visible
28 Aug 6.9 14:04:02 10° WSW 16:38:13 72° SW 22:59:45 22° NE visible
30 Aug 6.7 14:37:06 10° WSW 16:48:27 64° WSW 23:28:53 28° NNE visible
01 Sep 6.7 15:10:58 10° WSW 17:09:40 55° WSW 23:58:01 31° N visible
